Location: Vesunti
(61.5000°N, 22.8333°E)
Time: 16:02:21
(UTC+00:00)

Cosmos 1980 - Pass Details

Date: 17 February 2020
Orbit: 838 x 848 km, 71.0° (Epoch: 30 March)

Event Time Altitude Azimuth Distance (km) Brightness Sun altitude
Exits shadow 03:09:06 38° 216° (SW) 1,272 4.2 -21.8°
Maximum altitude 03:11:24 86° 130° (SE) 859 3.7 -21.5°
Drops below altitude 10° 03:17:07 10° 43° (NE) 2,487 6.9 -20.8°
Sets 03:19:35 0° 43° (NE) 3,426 7.8 -20.6°
